Flag for Germany Weather past 2 weeks in Bad Oldesloe, Schleswig-Holstein, Germany

41 °F

Scattered showers. Scattered clouds.

Feels Like: 34 °F
Forecast: 38 / 45 °F
Wind: 12 mph from West

Location: Luebeck-Blankensee

Current Time: Nov 30, 2015 at 11:22:35 AM

Latest Report: Nov 30, 2015 at 10:50 AM

Visibility: N/A

Pressure: 29.80 "Hg

Humidity: 87%

Dew point: 37 °F

Location of Bad OldesloeLocation

Historic Weather in Bad Oldesloe — Graph


Bad Oldesloe temperature yesterday

Maximum temperature yesterday: 50 °F (at 7:50 PM)
Minimum temperature yesterday: 45 °F (at 7:20 AM)
Average temperature yesterday: 47 °F

Past Weeks' High & Low Weather Summary

High55 °F (Nov 16, 7:50 AM)100% (Nov 15, 9:20 AM)30.15 "Hg (Nov 15, 9:20 AM)
Low30 °F (Nov 22, 8:20 PM)52% (Nov 27, 10:50 AM)29.30 "Hg (Nov 21, 6:50 AM)
Average43 °F88%29.69 "Hg
* Reported Nov 15 9:20 AM — Nov 30 9:50 AM, Bad Oldesloe, Weather by CustomWeather, © 2015

Note: Actual official high and low records may vary slightly from our data, if they occured in-between our weather recording intervals... More about our weather records


Bad Oldesloe weather history for previous 24 hours

Time TempWeatherWind HumidityBarometerVisibility
9:50 AM
Mon, Nov 30
41 °FScattered showers. Passing clouds.17 mph76%29.80 "HgN/A
9:20 AM41 °FScattered showers. Passing clouds.13 mph76%29.77 "HgN/A
8:50 AM39 °FScattered showers. Passing clouds.12 mph81%29.77 "HgN/A
7:50 AM41 °FScattered showers. Passing clouds.17 mph76%29.74 "HgN/A
7:20 AM39 °FScattered showers. Passing clouds.16 mph81%29.71 "HgN/A
6:50 AM41 °FPassing clouds.13 mph81%29.71 "HgN/A
9:20 PM
Sun, Nov 29
50 °FPassing clouds.20 mph67%29.39 "HgN/A
8:20 PM50 °FRain. Passing clouds.20 mph88%29.33 "HgN/A
7:50 PM50 °FPassing clouds.21 mph82%29.36 "HgN/A
7:20 PM48 °FPassing clouds.21 mph94%29.39 "HgN/A
6:50 PM48 °FLight rain. Passing clouds.17 mph87%29.42 "HgN/A
6:20 PM46 °FLight rain. Passing clouds.17 mph93%29.45 "HgN/A
5:50 PM46 °FRain. Partly cloudy.16 mph93%29.45 "HgN/A
5:20 PM46 °FLight rain. Partly cloudy.17 mph93%29.47 "HgN/A
4:50 PM48 °FLight rain. Partly cloudy.14 mph82%29.47 "HgN/A
4:20 PM46 °FPassing clouds.13 mph87%29.50 "HgN/A
3:50 PM46 °FScattered clouds.13 mph87%29.53 "HgN/A
3:20 PM46 °FScattered clouds.14 mph87%29.53 "HgN/A
2:50 PM46 °FBroken clouds.14 mph87%29.53 "HgN/A
2:20 PM46 °FPartly sunny.13 mph93%29.56 "HgN/A
1:50 PM46 °FLight rain. Partly sunny.15 mph93%29.56 "Hg5 mi
1:20 PM48 °FLight rain. Partly sunny.15 mph82%29.56 "HgN/A
12:50 PM48 °FPartly sunny.17 mph82%29.56 "HgN/A
12:20 PM48 °FBroken clouds.20 mph82%29.56 "HgN/A
11:50 AM48 °FPartly sunny.21 mph82%29.56 "HgN/A
11:20 AM48 °FPartly sunny.20 mph82%29.56 "HgN/A
Weather by CustomWeather, © 2015

See weather overviewHow to use our weather pages